| time (UTC) | temp F | wind direction | speed knots | gust knots | rain 1hr in | rain 24hr in | rain mn in | humidity % | barometer mb |
| 20260506084528 | 45 | 210 | 10.4 | 20.9 | 0.00 | 0.00 | 0.00 | 95 | 1018.1 |
| 20260506083038 | 45 | 335 | 10.4 | 22.6 | 0.00 | 0.00 | 0.00 | 95 | 1017.9 |
| 20260506081526 | 46 | 223 | 13.0 | 22.6 | 0.00 | 0.00 | 0.00 | 95 | 1017.8 |
| 20260506073030 | 44 | 221 | 4.3 | 12.2 | 0.00 | 0.00 | 0.00 | 94 | 1017.6 |
| 20260506071529 | 45 | 240 | 6.1 | 14.8 | 0.00 | 0.00 | 0.00 | 94 | 1017.7 |
| 20260506061530 | 47 | 227 | 8.7 | 17.4 | 0.00 | 0.00 | 0.00 | 93 | 1017.5 |
| 20260506044532 | 46 | 200 | 9.6 | 20.9 | 0.00 | 0.00 | 0.00 | 93 | 1017.4 |
| 20260506043028 | 45 | 208 | 11.3 | 18.2 | 0.00 | 0.00 | 0.00 | 93 | 1017.3 |
| 20260506041528 | 45 | 219 | 11.3 | 20.9 | 0.00 | 0.00 | 0.00 | 93 | 1017.4 |
| 20260506040043 | 46 | 231 | 9.6 | 20.0 | 0.00 | 0.00 | 0.00 | 93 | 1017.4 |
| 20260506034530 | 47 | 233 | 8.7 | 17.4 | 0.00 | 0.00 | 0.00 | 92 | 1017.6 |
| 20260506033029 | 48 | 252 | 7.0 | 15.6 | 0.00 | 0.00 | 0.00 | 92 | 1017.7 |
| 20260506031528 | 49 | 215 | 8.7 | 20.0 | 0.00 | 0.00 | 0.00 | 92 | 1017.8 |
| 20260506030025 | 49 | 228 | 9.6 | 15.6 | 0.00 | 0.00 | 0.00 | 92 | 1017.9 |
| 20260506024536 | 49 | 218 | 9.6 | 17.4 | 0.00 | 0.00 | 0.00 | 93 | 1018.0 |
| 20260506023030 | 48 | 196 | 7.8 | 11.3 | 0.00 | 0.00 | 0.00 | 95 | 1018.0 |
| 20260506021542 | 47 | 189 | 7.8 | 16.5 | 0.00 | 0.00 | 0.00 | 94 | 1017.9 |
| 20260506020028 | 47 | 215 | 8.7 | 16.5 | 0.00 | 0.00 | 0.00 | 95 | 1017.7 |
| 20260506014528 | 47 | 258 | 9.6 | 15.6 | 0.00 | 0.00 | 0.00 | 95 | 1017.7 |
| 20260506013030 | 46 | 257 | 7.8 | 14.8 | 0.00 | 0.00 | 0.00 | 96 | 1017.4 |
| 20260506011529 | 46 | 220 | 8.7 | 15.6 | 0.00 | 0.00 | 0.00 | 95 | 1017.2 |
| 20260506010039 | 45 | 229 | 9.6 | 20.0 | 0.00 | 0.00 | 0.00 | 96 | 1017.2 |
| 20260506004528 | 45 | 257 | 11.3 | 16.5 | 0.00 | 0.00 | 0.00 | 96 | 1016.9 |
| 20260506003028 | 45 | 218 | 10.4 | 20.0 | 0.00 | 0.00 | 0.00 | 96 | 1016.6 |
| 20260506001530 | 45 | 204 | 11.3 | 21.7 | 0.00 | 0.00 | 0.00 | 96 | 1016.4 |
| 20260506000031 | 45 | 250 | 12.2 | 20.0 | 0.00 | 0.00 | 0.00 | 96 | 1016.2 |
| 20260505234539 | 45 | 232 | 8.7 | 18.2 | 0.00 | 0.00 | 0.00 | 96 | 1016.0 |
| 20260505233033 | 45 | 335 | 11.3 | 20.9 | 0.00 | 0.00 | 0.00 | 96 | 1015.8 |
| 20260505231531 | 45 | 335 | 10.4 | 17.4 | 0.00 | 0.00 | 0.00 | 96 | 1015.3 |
| 20260505230028 | 44 | 246 | 13.0 | 20.0 | 0.00 | 0.00 | 0.00 | 96 | 1015.4 |
| 20260505224531 | 45 | 227 | 12.2 | 19.1 | 0.00 | 0.00 | 0.00 | 95 | 1015.0 |
| 20260505223028 | 45 | 245 | 12.2 | 18.2 | 0.00 | 0.00 | 0.00 | 94 | 1015.1 |
| 20260505221528 | 46 | 254 | 11.3 | 18.2 | 0.00 | 0.00 | 0.00 | 93 | 1014.7 |
| 20260505220027 | 46 | 231 | 9.6 | 19.1 | 0.00 | 0.00 | 0.00 | 93 | 1014.7 |
| 20260505214536 | 46 | 247 | 13.9 | 22.6 | 0.00 | 0.00 | 0.00 | 92 | 1014.7 |
| 20260505213027 | 46 | 230 | 10.4 | 20.0 | 0.00 | 0.00 | 0.00 | 91 | 1014.7 |
| 20260505211539 | 48 | 221 | 12.2 | 21.7 | 0.00 | 0.00 | 0.00 | 88 | 1014.6 |
| 20260505210029 | 51 | 227 | 9.6 | 17.4 | 0.00 | 0.00 | 0.00 | 85 | 1014.7 |
| 20260505203037 | 49 | 247 | 11.3 | 21.7 | 0.00 | 0.00 | 0.00 | 86 | 1014.9 |
| 20260505201528 | 50 | 218 | 14.8 | 20.9 | 0.00 | 0.00 | 0.00 | 85 | 1014.6 |
| 20260505200025 | 50 | 200 | 13.9 | 22.6 | 0.00 | 0.00 | 0.00 | 85 | 1014.5 |
| 20260505194528 | 51 | 190 | 12.2 | 23.5 | 0.00 | 0.00 | 0.00 | 84 | 1014.2 |
| 20260505193027 | 50 | 238 | 13.9 | 21.7 | 0.00 | 0.00 | 0.00 | 83 | 1014.1 |
| 20260505191528 | 52 | 219 | 10.4 | 20.9 | 0.00 | 0.00 | 0.00 | 80 | 1013.9 |
| 20260505190027 | 55 | 225 | 12.2 | 19.1 | 0.00 | 0.00 | 0.00 | 77 | 1013.8 |
| 20260505184538 | 56 | 213 | 11.3 | 20.0 | 0.00 | 0.00 | 0.00 | 75 | 1013.6 |
| 20260505183037 | 56 | 200 | 11.3 | 20.9 | 0.00 | 0.00 | 0.00 | 76 | 1013.5 |
| 20260505181530 | 53 | 207 | 13.9 | 20.0 | 0.00 | 0.00 | 0.00 | 78 | 1013.6 |
| 20260505180029 | 55 | 182 | 10.4 | 17.4 | 0.00 | 0.00 | 0.00 | 76 | 1013.6 |
| 20260505174529 | 55 | 206 | 10.4 | 20.9 | 0.00 | 0.00 | 0.00 | 77 | 1013.8 |
| 20260505173026 | 54 | 236 | 13.9 | 24.3 | 0.00 | 0.00 | 0.00 | 77 | 1013.7 |
| 20260505171528 | 54 | 220 | 12.2 | 20.9 | 0.00 | 0.00 | 0.00 | 76 | 1013.8 |
| 20260505170053 | 53 | 335 | 11.3 | 18.2 | 0.00 | 0.00 | 0.00 | 78 | 1013.7 |
| 20260505164535 | 52 | 212 | 10.4 | 19.1 | 0.00 | 0.00 | 0.00 | 79 | 1013.8 |
| 20260505163028 | 53 | 190 | 11.3 | 19.1 | 0.00 | 0.00 | 0.00 | 79 | 1013.6 |
| 20260505161526 | 51 | 213 | 13.0 | 20.9 | 0.00 | 0.00 | 0.00 | 81 | 1013.6 |
| 20260505153028 | 49 | 227 | 13.0 | 23.5 | 0.00 | 0.00 | 0.00 | 83 | 1013.3 |
| 20260505151535 | 49 | 203 | 13.0 | 23.5 | 0.00 | 0.00 | 0.00 | 82 | 1013.2 |
| 20260505124528 | 49 | 221 | 8.7 | 14.8 | 0.00 | 0.01 | 0.00 | 82 | 1012.8 |
| 20260505123030 | 49 | 201 | 7.0 | 14.8 | 0.00 | 0.01 | 0.00 | 81 | 1012.7 |
| 20260505121536 | 50 | 225 | 7.0 | 13.0 | 0.00 | 0.01 | 0.00 | 81 | 1012.8 |
| 20260505120029 | 50 | 216 | 7.8 | 13.9 | 0.00 | 0.01 | 0.00 | 82 | 1012.5 |
| 20260505114529 | 49 | 205 | 9.6 | 18.2 | 0.00 | 0.01 | 0.00 | 84 | 1012.4 |
| 20260505113039 | 47 | 200 | 9.6 | 14.8 | 0.00 | 0.01 | 0.00 | 85 | 1012.4 |
| 20260505111540 | 47 | 222 | 9.6 | 15.6 | 0.00 | 0.01 | 0.00 | 86 | 1012.3 |
| 20260505091526 | 41 | 335 | 5.2 | 10.4 | 0.00 | 0.01 | 0.00 | 92 | 1010.9 |
| 20260505090032 | 40 | 229 | 7.0 | 10.4 | 0.00 | 0.01 | 0.00 | 93 | 1010.8 |